N1ICS-1 Weather Reports


time (UTC)temp
F
wind
direction
speed
knots
gust
knots
rain 1hr
in
rain 24hr
in
rain mn
in
humidity
%
barometer
mb
20260507064501 40 247 3.5 5.2 0.00 0.00 0.00 90 1015.6
20260507064002 40 243 3.5 4.3 0.00 0.00 0.00 90 1015.5
20260507063502 39 261 2.6 5.2 0.00 0.00 0.00 91 1015.6
20260507063001 39 253 3.5 5.2 0.00 0.00 0.00 92 1015.6
20260507062502 39 250 2.6 3.5 0.00 0.00 0.00 93 1015.7
20260507062001 38 252 2.6 2.6 0.00 0.00 0.00 92 1015.6
20260507061502 39 230 2.6 3.5 0.00 0.00 0.00 93 1015.6
20260507061002 39 224 1.7 2.6 0.00 0.00 0.00 93 1015.7
20260507060502 39 211 0.0 1.7 0.00 0.00 0.00 92 1015.7
20260507060002 40 252 1.7 2.6 0.00 0.00 0.00 91 1015.5
20260507055502 40 251 1.7 2.6 0.00 0.00 0.00 90 1015.6
20260507055001 41 258 2.6 3.5 0.00 0.00 0.00 89 1015.6
20260507054502 42 262 3.5 4.3 0.00 0.00 0.00 88 1015.6
20260507054002 42 271 4.3 5.2 0.00 0.00 0.00 88 1015.6
20260507053501 42 271 3.5 4.3 0.00 0.00 0.00 89 1015.6
20260507053003 41 274 2.6 4.3 0.00 0.00 0.00 90 1015.8
20260507052502 42 265 2.6 4.3 0.00 0.00 0.00 89 1015.8
20260507052002 42 272 2.6 3.5 0.00 0.00 0.00 89 1015.7
20260507051502 42 268 3.5 4.3 0.00 0.00 0.00 87 1015.7
20260507051001 42 267 3.5 4.3 0.00 0.00 0.00 88 1015.6
20260507050502 43 272 4.3 4.3 0.00 0.00 0.00 88 1015.7
20260507050002 42 271 3.5 4.3 0.00 0.00 0.00 88 1015.7
20260507045501 42 272 2.6 3.5 0.00 0.00 0.00 89 1015.7
20260507045002 42 267 2.6 3.5 0.00 0.00 0.00 87 1015.6
20260507044502 43 273 2.6 3.5 0.00 0.00 0.00 88 1015.6
20260507044002 42 267 2.6 3.5 0.00 0.00 0.00 90 1015.5
20260507043502 43 240 0.0 2.6 0.00 0.00 0.00 90 1015.5
20260507043002 43 247 1.7 3.5 0.00 0.00 0.00 89 1015.6
20260507042502 43 269 2.6 3.5 0.00 0.00 0.00 90 1015.6
20260507042001 42 292 2.6 2.6 0.00 0.00 0.00 92 1015.7
20260507041501 43 258 1.7 2.6 0.00 0.00 0.00 91 1015.5
20260507041002 43 242 1.7 2.6 0.00 0.00 0.00 90 1015.7
20260507040502 43 267 1.7 2.6 0.00 0.00 0.00 91 1015.6
20260507040001 42 266 1.7 2.6 0.00 0.29 0.29 92 1015.7
20260507035502 42 303 1.7 1.7 0.00 0.29 0.29 92 1015.7
20260507035001 42 258 0.0 1.7 0.00 0.29 0.29 89 1015.5
20260507034502 44 251 1.7 2.6 0.00 0.29 0.29 88 1015.6
20260507034002 44 249 1.7 1.7 0.00 0.29 0.29 85 1015.6
20260507033501 45 245 0.0 1.7 0.00 0.29 0.29 86 1015.4
20260507033001 45 347 1.7 2.6 0.00 0.29 0.29 84 1015.5
20260507032502 47 198 3.5 3.5 0.00 0.29 0.29 81 1015.6
20260507032001 46 261 1.7 2.6 0.00 0.29 0.29 82 1015.6
20260507031502 46 12 3.5 7.0 0.00 0.29 0.29 85 1015.5
20260507031002 46 261 3.5 5.2 0.00 0.29 0.29 83 1015.6
20260507030502 45 14 5.2 7.0 0.00 0.29 0.29 89 1015.5
20260507030003 45 263 3.5 3.5 0.00 0.29 0.29 89 1015.6
20260507025501 45 272 1.7 3.5 0.00 0.29 0.29 89 1015.6
20260507025002 45 264 2.6 3.5 0.00 0.29 0.29 89 1015.6
20260507024502 45 272 2.6 3.5 0.00 0.29 0.29 89 1015.5
20260507024002 45 266 2.6 3.5 0.00 0.29 0.29 88 1015.9
20260507023502 46 278 2.6 3.5 0.00 0.29 0.29 88 1015.7
20260507023001 46 268 2.6 3.5 0.00 0.29 0.29 88 1015.7
20260507022502 46 285 2.6 3.5 0.00 0.29 0.29 89 1015.7
20260507022001 46 283 1.7 3.5 0.00 0.29 0.29 89 1015.7
20260507021502 46 280 1.7 2.6 0.00 0.29 0.29 90 1015.6
20260507021002 46 277 1.7 2.6 0.00 0.29 0.29 90 1015.7
20260507020502 46 249 1.7 2.6 0.00 0.29 0.29 90 1015.6
20260507020002 46 263 1.7 2.6 0.00 0.29 0.29 90 1015.7
20260507015501 47 272 2.6 2.6 0.00 0.29 0.29 89 1015.5
20260507015002 47 269 2.6 3.5 0.00 0.29 0.29 88 1015.5
20260507014501 47 273 1.7 2.6 0.00 0.29 0.29 87 1015.3
20260507014002 47 268 2.6 3.5 0.00 0.29 0.29 88 1015.4
20260507013502 47 286 2.6 2.6 0.00 0.29 0.29 88 1015.7
20260507013002 47 275 1.7 2.6 0.00 0.29 0.29 88 1015.2
20260507012502 47 271 2.6 2.6 0.00 0.29 0.29 88 1015.5
20260507012001 48 265 1.7 2.6 0.00 0.29 0.29 87 1015.2
20260507011502 48 255 2.6 2.6 0.00 0.29 0.29 85 1015.2
20260507011002 48 263 1.7 2.6 0.00 0.29 0.29 85 1014.7
20260507010501 48 271 1.7 1.7 0.00 0.29 0.29 85 1014.8
20260507010002 48 262 1.7 2.6 0.00 0.29 0.29 86 1014.8
20260507005501 48 253 1.7 2.6 0.00 0.29 0.29 86 1014.8
20260507005002 48 278 0.0 1.7 0.00 0.29 0.29 87 1015.0
20260507004501 48 221 1.7 2.6 0.00 0.29 0.29 86 1015.1
20260507004002 48 249 1.7 1.7 0.00 0.29 0.29 85 1014.9
20260507003501 48 227 1.7 2.6 0.00 0.29 0.29 84 1014.7
20260507003001 48 269 2.6 2.6 0.00 0.29 0.29 83 1014.9
20260507002502 48 238 1.7 2.6 0.00 0.29 0.29 83 1015.0
20260507002001 48 241 1.7 2.6 0.00 0.29 0.29 81 1015.0
20260507001501 48 260 2.6 2.6 0.00 0.29 0.29 80 1014.8
20260507001002 49 263 2.6 3.5 0.00 0.29 0.29 77 1014.8
20260507000502 50 253 2.6 4.3 0.00 0.29 0.29 76 1014.8
20260507000003 50 238 2.6 3.5 0.00 0.29 0.29 76 1014.9
20260506235502 51 255 2.6 5.2 0.00 0.29 0.29 73 1014.7
20260506235002 52 247 3.5 5.2 0.00 0.29 0.29 72 1014.7
20260506234502 52 261 3.5 6.1 0.00 0.29 0.29 68 1015.0
20260506234002 52 244 6.1 9.6 0.00 0.29 0.29 64 1014.8
20260506233502 53 239 3.5 7.0 0.00 0.29 0.29 65 1014.8
20260506233001 53 239 7.8 9.6 0.00 0.29 0.29 62 1014.8
20260506232502 54 240 4.3 8.7 0.00 0.29 0.29 60 1014.9
20260506232002 55 213 5.2 9.6 0.00 0.29 0.29 56 1015.0
20260506231502 56 248 7.0 8.7 0.00 0.29 0.29 58 1015.0
20260506231002 56 243 7.0 11.3 0.00 0.29 0.29 57 1015.1
20260506230502 55 239 11.3 11.3 0.00 0.29 0.29 60 1015.1
20260506230002 55 249 9.6 12.2 0.00 0.29 0.29 59 1015.0
20260506225501 54 245 7.8 11.3 0.00 0.29 0.29 59 1015.1
20260506225002 54 239 7.0 11.3 0.00 0.29 0.29 62 1015.1
20260506224501 54 252 7.8 10.4 0.00 0.29 0.29 62 1015.2
20260506224002 54 248 7.0 10.4 0.00 0.29 0.29 61 1015.2
20260506223502 54 242 11.3 12.2 0.00 0.29 0.29 62 1015.2
20260506223004 53 255 7.8 12.2 0.00 0.29 0.29 58 1015.2
20260506222501 54 277 10.4 12.2 0.00 0.29 0.29 60 1015.2
20260506222002 53 267 11.3 13.9 0.00 0.29 0.29 58 1015.0
20260506221502 53 266 7.0 13.0 0.00 0.29 0.29 60 1015.0
20260506221002 53 269 9.6 11.3 0.00 0.29 0.29 58 1015.1
20260506220502 53 273 7.0 11.3 0.00 0.29 0.29 59 1014.9
20260506220002 53 259 9.6 11.3 0.00 0.29 0.29 60 1015.0
20260506215502 53 277 8.7 10.4 0.00 0.29 0.29 58 1015.0
20260506215001 53 283 7.8 13.0 0.00 0.29 0.29 55 1014.9
20260506214502 54 319 4.3 10.4 0.00 0.29 0.29 56 1014.9
20260506214002 54 324 4.3 11.3 0.00 0.29 0.29 55 1015.1
20260506213502 54 284 7.0 13.0 0.00 0.29 0.29 57 1015.1
20260506213002 54 274 9.6 11.3 0.00 0.29 0.29 59 1015.0
20260506212502 54 271 9.6 10.4 0.00 0.29 0.29 59 1014.9
20260506212002 54 282 10.4 13.0 0.00 0.29 0.29 56 1015.0
20260506211501 54 278 7.8 11.3 0.00 0.29 0.29 56 1015.0
20260506211002 53 281 6.1 10.4 0.00 0.29 0.29 56 1014.9
20260506210501 54 287 7.8 9.6 0.00 0.29 0.29 61 1014.6
20260506210002 54 275 6.1 11.3 0.00 0.29 0.29 55 1014.8
20260506205502 53 285 5.2 11.3 0.00 0.29 0.29 55 1014.8
20260506205002 53 275 7.0 11.3 0.00 0.29 0.29 55 1014.7
20260506204502 54 284 6.1 10.4 0.00 0.29 0.29 58 1014.8
20260506204001 54 283 7.0 10.4 0.00 0.29 0.29 57 1014.8
20260506203502 54 286 8.7 8.7 0.00 0.29 0.29 58 1014.8
20260506203002 54 308 6.1 13.9 0.00 0.29 0.29 51 1014.7
20260506202502 54 272 7.8 13.9 0.00 0.29 0.29 56 1014.6
20260506202002 54 248 7.0 11.3 0.00 0.29 0.29 56 1014.9
20260506201502 54 274 9.6 13.0 0.00 0.29 0.29 57 1014.9
20260506201002 54 286 8.7 11.3 0.00 0.29 0.29 58 1014.9
20260506200502 54 284 6.1 13.0 0.00 0.29 0.29 55 1015.0
20260506200002 54 286 8.7 10.4 0.00 0.29 0.29 52 1015.0
20260506195501 54 291 8.7 13.9 0.00 0.29 0.29 54 1014.8
20260506195002 54 348 7.0 11.3 0.00 0.29 0.29 54 1014.8
20260506194501 54 317 3.5 11.3 0.00 0.29 0.29 53 1014.9
20260506194002 54 292 5.2 15.6 0.00 0.29 0.29 51 1014.7
20260506193501 54 275 7.8 13.0 0.00 0.29 0.29 54 1014.7
20260506193002 54 332 7.8 15.6 0.00 0.29 0.29 53 1014.7
20260506192502 54 261 10.4 12.2 0.00 0.29 0.29 59 1014.8
20260506192001 54 290 9.6 12.2 0.00 0.29 0.29 59 1014.7
20260506191502 55 284 10.4 11.3 0.00 0.29 0.29 56 1014.6
20260506191002 55 230 4.3 7.0 0.00 0.29 0.29 54 1014.6
20260506190502 54 289 3.5 7.8 0.00 0.29 0.29 53 1014.9
20260506190003 55 265 10.4 13.0 0.00 0.29 0.29 58 1014.9
20260506185502 56 294 4.3 10.4 0.00 0.29 0.29 52 1014.8
20260506185002 55 313 7.0 12.2 0.00 0.29 0.29 52 1015.1
20260506184502 56 289 9.6 12.2 0.00 0.29 0.29 58 1015.0
20260506184001 55 279 5.2 8.7 0.00 0.29 0.29 53 1014.8
20260506183503 54 290 3.5 9.6 0.00 0.29 0.29 54 1014.9
20260506183002 55 294 3.5 7.8 0.00 0.29 0.29 53 1015.1
20260506182502 54 312 5.2 10.4 0.00 0.29 0.29 50 1015.1
20260506182002 55 331 4.3 18.2 0.00 0.29 0.29 53 1014.8
20260506181501 55 277 7.0 11.3 0.00 0.29 0.29 51 1014.9
20260506181002 55 290 8.7 14.8 0.00 0.29 0.29 51 1015.0
20260506180501 55 251 2.6 7.0 0.00 0.29 0.29 57 1014.8
20260506180002 54 274 4.3 9.6 0.00 0.29 0.29 50 1014.7
20260506175502 54 254 7.8 12.2 0.00 0.29 0.29 56 1014.7
20260506175002 54 275 7.8 10.4 0.00 0.29 0.29 55 1014.8
20260506174502 54 275 11.3 11.3 0.00 0.29 0.29 54 1015.0
20260506174001 54 159 1.7 4.3 0.00 0.29 0.29 58 1014.8
20260506173502 54 313 3.5 8.7 0.00 0.29 0.29 53 1014.9
20260506173001 54 341 4.3 7.0 0.00 0.29 0.29 54 1015.0
20260506172502 54 224 5.2 9.6 0.00 0.29 0.29 55 1014.9
20260506172001 54 239 7.0 9.6 0.00 0.29 0.29 56 1014.9
20260506171502 54 297 8.7 13.0 0.00 0.29 0.29 60 1014.9
20260506171001 54 212 3.5 8.7 0.00 0.29 0.29 56 1014.9
20260506170502 53 283 1.7 7.0 0.00 0.29 0.29 59 1015.1
20260506170002 53 324 5.2 9.6 0.00 0.29 0.29 57 1015.1
20260506165502 53 347 3.5 9.6 0.00 0.29 0.29 54 1015.2
20260506165002 53 267 3.5 7.8 0.00 0.29 0.29 57 1015.2
20260506164502 53 273 4.3 7.0 0.00 0.29 0.29 59 1015.1
20260506164001 53 278 5.2 8.7 0.00 0.29 0.29 58 1015.1
20260506163502 53 315 4.3 5.2 0.00 0.29 0.29 61 1015.2
20260506163002 53 349 2.6 7.8 0.00 0.29 0.29 57 1015.4
20260506162501 54 285 6.1 7.0 0.00 0.29 0.29 57 1015.2
20260506162002 53 313 4.3 8.7 0.00 0.29 0.29 57 1015.2
20260506161502 53 311 11.3 13.9 0.00 0.29 0.29 55 1015.0
20260506161002 54 294 9.6 9.6 0.00 0.29 0.29 54 1015.0
20260506160502 55 288 3.5 9.6 0.00 0.29 0.29 64 1015.0
20260506160002 53 288 3.5 9.6 0.00 0.29 0.29 55 1015.3
20260506155502 53 290 7.8 10.4 0.00 0.29 0.29 55 1015.3
20260506155002 54 315 3.5 7.8 0.00 0.29 0.29 60 1015.1
20260506154501 53 26 1.7 7.0 0.00 0.29 0.29 56 1015.1
20260506154001 53 21 7.0 13.0 0.00 0.29 0.29 56 1015.1
20260506153502 54 1 5.2 13.0 0.00 0.29 0.29 61 1014.8
20260506153002 55 313 4.3 7.8 0.00 0.29 0.29 58 1014.9
20260506152502 54 317 7.0 10.4 0.00 0.29 0.29 58 1014.7
20260506152001 54 333 7.0 10.4 0.00 0.29 0.29 57 1014.9
20260506151502 53 323 5.2 11.3 0.00 0.29 0.29 61 1014.9
20260506151001 53 15 7.8 11.3 0.00 0.29 0.29 60 1014.7
20260506150502 53 21 3.5 7.8 0.00 0.29 0.29 65 1014.6
20260506150003 54 330 10.4 12.2 0.00 0.29 0.29 62 1014.6
20260506145501 52 24 11.3 13.0 0.00 0.29 0.29 64 1014.5
20260506145002 52 18 11.3 11.3 0.00 0.29 0.29 60 1014.5
20260506144502 52 334 7.0 14.8 0.00 0.29 0.29 60 1014.2
20260506144001 52 5 7.8 13.0 0.00 0.29 0.29 59 1014.3
20260506143502 52 22 7.8 10.4 0.00 0.29 0.29 64 1014.2
20260506143001 52 340 5.2 10.4 0.00 0.29 0.29 63 1014.2
20260506142502 52 23 3.5 11.3 0.00 0.29 0.29 64 1014.2
20260506142002 52 339 4.3 10.4 0.00 0.29 0.29 62 1014.4
20260506141501 51 10 8.7 9.6 0.00 0.29 0.29 66 1014.6
20260506141002 52 332 7.8 9.6 0.00 0.29 0.29 70 1014.2
20260506140502 51 15 3.5 11.3 0.00 0.29 0.29 65 1014.0
20260506140002 51 344 5.2 10.4 0.00 0.29 0.29 69 1014.0
20260506135502 51 342 1.7 9.6 0.00 0.29 0.29 72 1014.1
20260506135002 51 20 6.1 9.6 0.00 0.29 0.29 73 1013.9
20260506134502 50 349 3.5 7.8 0.00 0.29 0.29 68 1013.9
20260506134001 50 319 1.7 4.3 0.00 0.29 0.29 71 1013.9
20260506133502 50 338 4.3 7.0 0.00 0.29 0.29 70 1013.9
20260506133002 50 42 2.6 7.0 0.00 0.29 0.29 74 1014.1
20260506132501 50 0 2.6 7.0 0.00 0.29 0.29 75 1013.9
20260506132002 50 328 2.6 7.8 0.00 0.29 0.29 76 1013.7
20260506131502 50 354 6.1 7.0 0.00 0.29 0.29 81 1013.7
20260506131002 50 7 4.3 7.8 0.00 0.29 0.29 81 1013.7
20260506130502 49 320 7.0 9.6 0.00 0.29 0.29 79 1013.6
20260506130003 49 348 3.5 8.7 0.00 0.29 0.29 82 1013.6
20260506125501 49 352 2.6 5.2 0.00 0.29 0.29 87 1013.6
20260506125002 49 289 3.5 6.1 0.00 0.29 0.29 88 1013.4
20260506124501 49 295 3.5 5.2 0.00 0.29 0.29 90 1013.5
20260506124002 47 323 2.6 6.1 0.00 0.29 0.29 91 1013.5
20260506123501 46 339 1.7 2.6 0.00 0.29 0.29 95 1013.2
20260506123001 46 299 3.5 6.1 0.00 0.29 0.29 95 1013.3
20260506122502 46 285 4.3 7.0 0.00 0.29 0.29 96 1013.5
20260506122002 46 267 3.5 7.8 0.00 0.29 0.29 96 1013.2
20260506121501 45 292 4.3 8.7 0.00 0.29 0.29 96 1012.9
20260506121002 45 292 3.5 5.2 0.00 0.29 0.29 96 1012.8
20260506120501 45 306 1.7 4.3 0.00 0.29 0.29 96 1012.6
20260506120002 44 282 3.5 5.2 0.00 0.29 0.29 97 1013.0
20260506115502 44 286 3.5 5.2 0.00 0.29 0.29 97 1012.8
20260506115002 44 263 5.2 7.0 0.00 0.29 0.29 98 1012.9
20260506114502 44 269 5.2 6.1 0.00 0.29 0.29 98 1012.8
20260506114002 44 279 5.2 7.8 0.00 0.29 0.29 98 1012.8
20260506113502 44 280 5.2 6.1 0.00 0.29 0.29 98 1012.7
20260506113002 44 273 4.3 6.1 0.00 0.29 0.29 99 1012.3
20260506112501 44 288 5.2 6.1 0.00 0.29 0.29 99 1012.1
20260506112002 43 281 3.5 5.2 0.00 0.29 0.29 99 1012.3
20260506111501 43 284 2.6 4.3 0.00 0.29 0.29 99 1012.4
20260506111002 43 278 4.3 5.2 0.00 0.29 0.29 99 1012.0
20260506110502 43 264 3.5 4.3 0.00 0.29 0.29 99 1011.9
20260506110002 44 261 3.5 5.2 0.00 0.29 0.29 99 1012.2
20260506105501 43 267 3.5 5.2 0.00 0.29 0.29 98 1012.0
20260506105002 44 285 2.6 4.3 0.00 0.29 0.29 98 1011.8
20260506104502 43 266 2.6 6.1 0.00 0.29 0.29 98 1012.0
20260506104001 43 267 4.3 6.1 0.00 0.29 0.29 98 1012.2
20260506103502 43 269 3.5 5.2 0.00 0.29 0.29 98 1012.0
20260506103003 43 267 4.3 5.2 0.00 0.29 0.29 98 1011.9
20260506102502 43 269 4.3 5.2 0.00 0.29 0.29 98 1012.0
20260506102001 43 260 3.5 5.2 0.00 0.29 0.29 98 1011.7
20260506101502 43 283 2.6 4.3 0.00 0.29 0.29 98 1011.7
20260506101002 43 289 2.6 3.5 0.00 0.29 0.29 98 1011.3
20260506100502 43 276 2.6 5.2 0.00 0.29 0.29 99 1011.7
20260506100003 43 284 2.6 4.3 0.00 0.29 0.29 98 1011.5
20260506095502 43 267 3.5 4.3 0.00 0.29 0.29 98 1011.4
20260506095002 43 262 4.3 5.2 0.00 0.29 0.29 98 1011.5
20260506094501 43 264 3.5 5.2 0.00 0.29 0.29 98 1011.4
20260506094002 43 265 2.6 3.5 0.00 0.29 0.29 98 1011.4
20260506093502 43 294 3.5 5.2 0.00 0.29 0.29 99 1011.2
20260506093001 43 301 2.6 3.5 0.00 0.29 0.29 99 1011.3
20260506092502 43 308 2.6 3.5 0.00 0.29 0.29 99 1011.3
20260506092002 43 284 0.0 2.6 0.00 0.29 0.29 99 1011.3
20260506091502 42 258 1.7 2.6 0.00 0.29 0.29 99 1011.4
20260506091001 42 308 0.0 1.7 0.00 0.29 0.29 99 1011.0
20260506090502 42 306 0.0 2.6 0.00 0.29 0.29 99 1011.0
20260506090002 42 282 1.7 1.7 0.00 0.29 0.29 99 1011.2
20260506085502 42 180 0.0 2.6 0.00 0.29 0.29 99 1011.4
20260506085002 42 206 0.0 1.7 0.00 0.29 0.29 99 1011.2
20260506084501 42 262 1.7 3.5 0.00 0.29 0.29 99 1011.2
20260506084002 42 285 1.7 3.5 0.00 0.29 0.29 99 1011.4
20260506083502 42 352 1.7 3.5 0.00 0.29 0.29 99 1011.1
20260506083002 42 308 1.7 3.5 0.00 0.29 0.29 99 1011.4
20260506082501 42 319 2.6 3.5 0.02 0.29 0.29 99 1011.6
20260506082002 42 334 0.0 2.6 0.02 0.29 0.29 99 1011.1
20260506081502 42 211 0.0 1.7 0.00 0.29 0.29 99 1011.0
20260506081002 42 195 0.0 1.7 0.00 0.29 0.29 99 1011.0
20260506080502 42 95 0.0 1.7 0.02 0.29 0.29 99 1010.9
20260506073502 42 228 1.7 1.7 0.00 0.29 0.29 99 1011.0
20260506073002 42 315 0.0 1.7 0.00 0.29 0.29 99 1010.7
20260506072502 42 214 0.0 1.7 0.02 0.29 0.29 99 1010.6
20260506072002 42 225 0.0 1.7 0.04 0.29 0.29 99 1010.6
20260506071502 42 357 0.0 2.6 0.02 0.28 0.28 99 1010.4
20260506071003 42 74 0.0 1.7 0.04 0.28 0.28 99 1010.8
20260506070502 42 343 0.0 1.7 0.04 0.28 0.28 99 1011.1